Location: Unspecified
(0.0000°N, 0.0000°E)
Time: 15:21:07
(UTC+00:00)

STARLINK-32331 - Visible Passes

Search period start: 15 June 2025 00:00
Search period end: 25 June 2025 00:00
Orbit: 482 x 484 km, 43.0° (Epoch: 15 June)

Date Brightness Start Highest point End Pass type
(mag) Time Alt. Az. Time Alt. Az. Time Alt. Az.
19 Jun 3.5 19:38:52 10° SW 19:42:13 67° WSW 19:42:13 67° WSW visible
20 Jun 3.3 19:11:08 10° SW 19:14:54 81° NW 19:18:39 10° NE visible
21 Jun 3.4 18:43:23 10° SW 18:47:10 85° NW 18:50:55 10° NE visible
24 Jun 3.4 05:33:59 10° NW 05:37:45 85° NE 05:41:32 10° SE visible
